Tracking 19279 objects as of 13-Nov-2018
HD Live streaming from Space Station
objects crossing your sky now

INTELSAT 3-F2

Track INTELSAT 3-F2 now!
INTELSAT 3-F2 is classified as:


NORAD ID: 3623
Int'l Code: 1968-116A
Perigee: 38,426.8 km
Apogee: 39,330.6 km
Inclination: 11.0 °
Period: 1,596.6 minutes
Semi major axis: 45249 km
RCS: 2.5118 m2 (large)
Launch date: December 19, 1968
Source: International Telecommunications Satellite Organization (ITSO)
Launch site: AIR FORCE EASTERN TEST RANGE (AFETR)
aabbcc
Your satellite tracking list
Your tracking list is empty




NASA's NSSDC Master Catalog

Two Line Element Set (TLE):
1  3623U 68116A   18315.74005939 -.00000135  00000-0  00000+0 0  9990
2  3623  10.9625 313.0979 0099869  23.7122 155.4957  0.90194465101027
Source of the keplerian elements: AFSPC